Time,TemperatureF,DewpointF,PressureIn,WindDirection,WindDirectionDegrees,WindSpeedMPH,WindSpeedGustMPH,Humidity,HourlyPrecipIn,Conditions,Clouds,dailyrainin,SoftwareType,DateUTC
2013-07-19 00:09:00,79.2,67.0,30.14,South,189,0.0,-999.0,67,-99.99,,,0.00,weatherlink.com 1.10,2013-07-19 04:09:00,
2013-07-19 00:24:00,79.0,68.0,30.14,South,189,0.0,-999.0,68,-99.99,,,0.00,weatherlink.com 1.10,2013-07-19 04:24:00,
2013-07-19 00:39:00,79.0,68.0,30.13,South,189,0.0,-999.0,69,-99.99,,,0.00,weatherlink.com 1.10,2013-07-19 04:39:00,
2013-07-19 00:54:00,79.4,69.0,30.12,South,189,0.0,-999.0,70,-99.99,,,0.00,weatherlink.com 1.10,2013-07-19 04:54:00,
2013-07-19 01:09:00,79.6,69.0,30.12,South,187,0.0,-999.0,70,-99.99,,,0.00,weatherlink.com 1.10,2013-07-19 05:09:00,
2013-07-19 01:24:00,79.6,69.0,30.12,South,187,0.0,-999.0,70,-99.99,,,0.00,weatherlink.com 1.10,2013-07-19 05:24:00,
2013-07-19 01:39:00,79.8,69.0,30.12,South,187,0.0,-999.0,70,-99.99,,,0.00,weatherlink.com 1.10,2013-07-19 05:39:00,
2013-07-19 01:54:00,79.6,69.0,30.12,SSE,152,0.0,-999.0,69,-99.99,,,0.00,weatherlink.com 1.10,2013-07-19 05:54:00,
2013-07-19 02:09:00,79.4,68.0,30.11,SSE,156,0.0,-999.0,69,-99.99,,,0.00,weatherlink.com 1.10,2013-07-19 06:09:00,
2013-07-19 02:24:00,79.6,69.0,30.11,SE,144,0.0,-999.0,70,-99.99,,,0.00,weatherlink.com 1.10,2013-07-19 06:24:00,
2013-07-19 02:39:00,79.8,70.0,30.11,SE,145,0.0,-999.0,71,-99.99,,,0.00,weatherlink.com 1.10,2013-07-19 06:39:00,
2013-07-19 02:54:00,79.8,69.0,30.11,SE,143,0.0,-999.0,70,-99.99,,,0.00,weatherlink.com 1.10,2013-07-19 06:54:00,
2013-07-19 03:09:00,79.6,69.0,30.10,SSE,167,0.0,-999.0,69,-99.99,,,0.00,weatherlink.com 1.10,2013-07-19 07:09:00,
2013-07-19 03:24:00,79.6,69.0,30.11,South,172,0.0,-999.0,69,-99.99,,,0.00,weatherlink.com 1.10,2013-07-19 07:24:00,
2013-07-19 03:39:00,79.4,69.0,30.10,NNE,19,0.0,-999.0,70,-99.99,,,0.00,weatherlink.com 1.10,2013-07-19 07:39:00,
2013-07-19 03:54:00,79.4,68.0,30.09,ENE,70,0.0,-999.0,69,-99.99,,,0.00,weatherlink.com 1.10,2013-07-19 07:54:00,
2013-07-19 04:09:00,79.4,69.0,30.09,East,92,0.0,-999.0,70,-99.99,,,0.00,weatherlink.com 1.10,2013-07-19 08:09:00,
2013-07-19 04:24:00,79.2,69.0,30.09,SSE,168,0.0,-999.0,70,-99.99,,,0.00,weatherlink.com 1.10,2013-07-19 08:24:00,
2013-07-19 04:39:00,79.2,69.0,30.09,SSE,156,0.0,-999.0,70,-99.99,,,0.00,weatherlink.com 1.10,2013-07-19 08:39:00,
2013-07-19 04:54:00,79.2,69.0,30.09,East,84,0.0,-999.0,70,-99.99,,,0.00,weatherlink.com 1.10,2013-07-19 08:54:00,
2013-07-19 05:09:00,78.8,68.0,30.09,SE,128,0.0,-999.0,69,-99.99,,,0.00,weatherlink.com 1.10,2013-07-19 09:09:00,
2013-07-19 05:24:00,78.6,68.0,30.10,East,98,0.0,-999.0,70,-99.99,,,0.00,weatherlink.com 1.10,2013-07-19 09:24:00,
2013-07-19 05:39:00,78.8,68.0,30.10,ENE,61,0.0,-999.0,70,-99.99,,,0.00,weatherlink.com 1.10,2013-07-19 09:39:00,
2013-07-19 05:54:00,78.5,68.0,30.09,ENE,62,0.0,-999.0,71,-99.99,,,0.00,weatherlink.com 1.10,2013-07-19 09:54:00,
2013-07-19 06:09:00,78.3,68.0,30.10,SE,135,0.0,-999.0,71,-99.99,,,0.00,weatherlink.com 1.10,2013-07-19 10:09:00,
2013-07-19 06:24:00,78.1,68.0,30.09,SE,135,0.0,-999.0,72,-99.99,,,0.00,weatherlink.com 1.10,2013-07-19 10:24:00,
2013-07-19 06:40:00,77.9,68.0,30.10,SE,135,0.0,-999.0,72,-99.99,,,0.00,weatherlink.com 1.10,2013-07-19 10:40:00,
2013-07-19 06:55:00,77.7,68.0,30.10,SE,135,0.0,-999.0,73,-99.99,,,0.00,weatherlink.com 1.10,2013-07-19 10:55:00,
2013-07-19 07:10:00,77.9,69.0,30.10,SE,135,0.0,-999.0,73,-99.99,,,0.00,weatherlink.com 1.10,2013-07-19 11:10:00,
2013-07-19 07:25:00,78.3,69.0,30.10,East,99,0.0,-999.0,74,-99.99,,,0.00,weatherlink.com 1.10,2013-07-19 11:25:00,
2013-07-19 07:40:00,78.5,70.0,30.11,East,99,0.0,-999.0,75,-99.99,,,0.00,weatherlink.com 1.10,2013-07-19 11:40:00,
2013-07-19 07:55:00,78.3,70.0,30.11,East,99,0.0,-999.0,76,-99.99,,,0.00,weatherlink.com 1.10,2013-07-19 11:55:00,
2013-07-19 08:10:00,77.9,69.0,30.11,East,99,0.0,-999.0,75,-99.99,,,0.00,weatherlink.com 1.10,2013-07-19 12:10:00,
2013-07-19 08:25:00,77.7,69.0,30.12,East,99,0.0,-999.0,75,-99.99,,,0.00,weatherlink.com 1.10,2013-07-19 12:25:00,
2013-07-19 08:40:00,78.3,70.0,30.12,East,95,0.0,-999.0,75,-99.99,,,0.00,weatherlink.com 1.10,2013-07-19 12:40:00,
2013-07-19 08:55:00,79.0,70.0,30.12,SE,145,0.0,-999.0,74,-99.99,,,0.00,weatherlink.com 1.10,2013-07-19 12:55:00,
2013-07-19 09:10:00,78.8,70.0,30.13,East,101,0.0,-999.0,75,-99.99,,,0.03,weatherlink.com 1.10,2013-07-19 13:10:00,
2013-07-19 09:25:00,78.8,71.0,30.13,ESE,103,0.0,-999.0,77,-99.99,,,0.03,weatherlink.com 1.10,2013-07-19 13:25:00,
2013-07-19 09:40:00,78.8,71.0,30.13,NE,49,2.0,-999.0,77,-99.99,,,0.03,weatherlink.com 1.10,2013-07-19 13:40:00,
2013-07-19 09:55:00,79.4,71.0,30.13,ENE,78,0.0,-999.0,76,-99.99,,,0.03,weatherlink.com 1.10,2013-07-19 13:55:00,
2013-07-19 10:10:00,79.6,71.0,30.13,North,2,1.0,-999.0,74,-99.99,,,0.03,weatherlink.com 1.10,2013-07-19 14:10:00,
2013-07-19 10:25:00,79.9,70.0,30.14,East,88,1.0,-999.0,72,-99.99,,,0.03,weatherlink.com 1.10,2013-07-19 14:25:00,
2013-07-19 10:40:00,80.5,70.0,30.14,ESE,108,1.0,-999.0,71,-99.99,,,0.03,weatherlink.com 1.10,2013-07-19 14:40:00,
2013-07-19 10:55:00,80.7,70.0,30.14,ENE,57,1.0,-999.0,69,-99.99,,,0.03,weatherlink.com 1.10,2013-07-19 14:55:00,
2013-07-19 11:10:00,81.4,69.0,30.14,ENE,78,1.0,-999.0,66,-99.99,,,0.03,weatherlink.com 1.10,2013-07-19 15:10:00,
2013-07-19 11:25:00,82.8,70.0,30.14,ENE,76,2.0,-999.0,65,-99.99,,,0.03,weatherlink.com 1.10,2013-07-19 15:25:00,
2013-07-19 11:40:00,83.4,70.0,30.14,NE,44,2.0,-999.0,64,-99.99,,,0.03,weatherlink.com 1.10,2013-07-19 15:40:00,
2013-07-19 11:55:00,84.1,70.0,30.14,NW,316,2.0,-999.0,63,-99.99,,,0.03,weatherlink.com 1.10,2013-07-19 15:55:00,
2013-07-19 12:10:00,84.3,71.0,30.14,ENE,76,4.0,-999.0,64,-99.99,,,0.03,weatherlink.com 1.10,2013-07-19 16:10:00,
2013-07-19 12:25:00,83.6,70.0,30.13,ESE,110,0.0,-999.0,63,-99.99,,,0.03,weatherlink.com 1.10,2013-07-19 16:25:00,
2013-07-19 12:40:00,83.8,70.0,30.13,West,278,1.0,-999.0,63,-99.99,,,0.03,weatherlink.com 1.10,2013-07-19 16:40:00,
2013-07-19 12:55:00,84.0,69.0,30.12,ESE,122,2.0,-999.0,61,-99.99,,,0.03,weatherlink.com 1.10,2013-07-19 16:55:00,
2013-07-19 13:10:00,84.9,69.0,30.12,East,88,5.0,-999.0,60,-99.99,,,0.03,weatherlink.com 1.10,2013-07-19 17:10:00,
2013-07-19 13:25:00,86.5,70.0,30.12,NNW,335,0.0,-999.0,58,-99.99,,,0.03,weatherlink.com 1.10,2013-07-19 17:25:00,
2013-07-19 13:40:00,86.5,69.0,30.12,NNE,18,1.0,-999.0,56,-99.99,,,0.03,weatherlink.com 1.10,2013-07-19 17:40:00,
2013-07-19 13:55:00,86.7,69.0,30.11,North,11,3.0,-999.0,55,-99.99,,,0.03,weatherlink.com 1.10,2013-07-19 17:55:00,
2013-07-19 14:10:00,86.3,69.0,30.11,SE,127,0.0,-999.0,57,-99.99,,,0.03,weatherlink.com 1.10,2013-07-19 18:10:00,
2013-07-19 14:25:00,87.0,69.0,30.11,NW,311,2.0,-999.0,56,-99.99,,,0.03,weatherlink.com 1.10,2013-07-19 18:25:00,
2013-07-19 14:40:00,87.4,68.0,30.11,ENE,65,1.0,-999.0,53,-99.99,,,0.03,weatherlink.com 1.10,2013-07-19 18:40:00,
2013-07-19 14:55:00,87.4,68.0,30.11,NE,48,2.0,-999.0,53,-99.99,,,0.03,weatherlink.com 1.10,2013-07-19 18:55:00,
2013-07-19 15:10:00,87.6,68.0,30.11,North,357,2.0,-999.0,53,-99.99,,,0.03,weatherlink.com 1.10,2013-07-19 19:10:00,
2013-07-19 15:25:00,87.8,67.0,30.10,ENE,77,3.0,-999.0,51,-99.99,,,0.03,weatherlink.com 1.10,2013-07-19 19:25:00,
2013-07-19 15:40:00,88.2,69.0,30.11,NW,317,2.0,-999.0,53,-99.99,,,0.03,weatherlink.com 1.10,2013-07-19 19:40:00,
2013-07-19 15:55:00,89.0,69.0,30.10,SW,220,2.0,-999.0,52,-99.99,,,0.03,weatherlink.com 1.10,2013-07-19 19:55:00,
2013-07-19 16:10:00,88.8,69.0,30.09,SE,137,3.0,-999.0,53,-99.99,,,0.03,weatherlink.com 1.10,2013-07-19 20:10:00,
2013-07-19 16:25:00,88.8,69.0,30.09,NE,47,2.0,-999.0,53,-99.99,,,0.03,weatherlink.com 1.10,2013-07-19 20:25:00,
2013-07-19 16:40:00,88.2,69.0,30.08,NNW,345,0.0,-999.0,53,-99.99,,,0.03,weatherlink.com 1.10,2013-07-19 20:40:00,
2013-07-19 16:55:00,87.2,70.0,30.08,ENE,68,0.0,-999.0,56,-99.99,,,0.03,weatherlink.com 1.10,2013-07-19 20:55:00,
2013-07-19 17:10:00,86.3,69.0,30.08,ENE,68,4.0,-999.0,56,-99.99,,,0.03,weatherlink.com 1.10,2013-07-19 21:10:00,
2013-07-19 17:25:00,85.5,69.0,30.08,ENE,57,0.0,-999.0,58,-99.99,,,0.03,weatherlink.com 1.10,2013-07-19 21:25:00,
2013-07-19 17:40:00,84.9,69.0,30.07,NNE,33,1.0,-999.0,59,-99.99,,,0.03,weatherlink.com 1.10,2013-07-19 21:40:00,
2013-07-19 17:55:00,84.7,69.0,30.06,NE,37,3.0,-999.0,59,-99.99,,,0.03,weatherlink.com 1.10,2013-07-19 21:55:00,
2013-07-19 18:10:00,84.7,69.0,30.06,East,91,1.0,-999.0,60,-99.99,,,0.03,weatherlink.com 1.10,2013-07-19 22:10:00,
2013-07-19 18:25:00,84.3,69.0,30.06,NNE,26,4.0,-999.0,61,-99.99,,,0.03,weatherlink.com 1.10,2013-07-19 22:25:00,
2013-07-19 18:40:00,84.3,70.0,30.05,SE,139,0.0,-999.0,62,-99.99,,,0.03,weatherlink.com 1.10,2013-07-19 22:40:00,
2013-07-19 18:55:00,84.3,69.0,30.06,ENE,69,1.0,-999.0,61,-99.99,,,0.03,weatherlink.com 1.10,2013-07-19 22:55:00,
2013-07-19 19:10:00,84.3,70.0,30.06,East,84,3.0,-999.0,62,-99.99,,,0.03,weatherlink.com 1.10,2013-07-19 23:10:00,
2013-07-19 19:25:00,84.0,70.0,30.07,East,80,1.0,-999.0,63,-99.99,,,0.03,weatherlink.com 1.10,2013-07-19 23:25:00,
2013-07-19 19:40:00,83.6,70.0,30.07,ENE,78,3.0,-999.0,63,-99.99,,,0.03,weatherlink.com 1.10,2013-07-19 23:40:00,
2013-07-19 19:55:00,83.2,70.0,30.07,East,93,0.0,-999.0,64,-99.99,,,0.03,weatherlink.com 1.10,2013-07-19 23:55:00,
2013-07-19 20:10:00,82.8,69.0,30.07,ENE,64,1.0,-999.0,64,-99.99,,,0.03,weatherlink.com 1.10,2013-07-20 00:10:00,
2013-07-19 20:25:00,82.6,70.0,30.07,NNE,24,4.0,-999.0,65,-99.99,,,0.03,weatherlink.com 1.10,2013-07-20 00:25:00,
2013-07-19 20:40:00,81.6,68.0,30.07,WNW,300,3.0,-999.0,64,-99.99,,,0.03,weatherlink.com 1.10,2013-07-20 00:40:00,
2013-07-19 20:55:00,81.2,68.0,30.08,ENE,78,4.0,-999.0,65,-99.99,,,0.03,weatherlink.com 1.10,2013-07-20 00:55:00,
2013-07-19 21:10:00,80.9,68.0,30.08,WNW,299,1.0,-999.0,66,-99.99,,,0.03,weatherlink.com 1.10,2013-07-20 01:10:00,
2013-07-19 21:25:00,80.5,69.0,30.08,ESE,108,1.0,-999.0,67,-99.99,,,0.03,weatherlink.com 1.10,2013-07-20 01:25:00,
2013-07-19 21:40:00,80.3,68.0,30.08,ENE,74,0.0,-999.0,67,-99.99,,,0.03,weatherlink.com 1.10,2013-07-20 01:40:00,
2013-07-19 21:55:00,80.1,69.0,30.09,ENE,76,4.0,-999.0,68,-99.99,,,0.03,weatherlink.com 1.10,2013-07-20 01:55:00,
2013-07-19 22:10:00,80.1,69.0,30.09,East,86,1.0,-999.0,68,-99.99,,,0.03,weatherlink.com 1.10,2013-07-20 02:10:00,
2013-07-19 22:25:00,80.1,68.0,30.10,NNE,18,6.0,-999.0,66,-99.99,,,0.03,weatherlink.com 1.10,2013-07-20 02:25:00,
2013-07-19 22:40:00,80.3,67.0,30.11,ENE,72,1.0,-999.0,65,-99.99,,,0.03,weatherlink.com 1.10,2013-07-20 02:40:00,
2013-07-19 22:55:00,80.5,68.0,30.11,ENE,66,0.0,-999.0,65,-99.99,,,0.03,weatherlink.com 1.10,2013-07-20 02:55:00,
2013-07-19 23:10:00,80.5,68.0,30.11,ENE,78,0.0,-999.0,66,-99.99,,,0.03,weatherlink.com 1.10,2013-07-20 03:10:00,
2013-07-19 23:25:00,80.7,68.0,30.11,SSE,157,2.0,-999.0,66,-99.99,,,0.03,weatherlink.com 1.10,2013-07-20 03:25:00,
2013-07-19 23:40:00,80.5,68.0,30.11,East,91,0.0,-999.0,66,-99.99,,,0.03,weatherlink.com 1.10,2013-07-20 03:40:00,
2013-07-19 23:56:00,80.5,69.0,30.11,ENE,77,3.0,-999.0,68,-99.99,,,0.03,weatherlink.com 1.10,2013-07-20 03:56:00,